Home   Weather   Chalon-sur-Saône   Past weeks

Flag for France Past Weather in Chalon-sur-Saône, Burgundy, France — Yesterday and Last 2 Weeks

Now
43 °F

Mostly cloudy.


Feels Like: 36 °F
Forecast: 41 / 54 °F
Wind: 13 mph from South

Location: Dole Tavaux

Current Time: May 1, 2017 at 6:51:17 am

Latest Report: May 1, 2017 at 6:00 am


Visibility: N/A

Pressure: 29.89 "Hg

Humidity: 93%

Dew Point: 41 °F

Location of Chalon-sur-SaôneLocation

Past Weather in Chalon-sur-Saône — Graph

°F

Chalon-sur-Saône Temperature Yesterday

Maximum temperature yesterday: 66 °F (at 2:00 pm)
Minimum temperature yesterday: 36 °F (at 6:00 am)
Average temperature yesterday: 53 °F

High & Low Weather Summary for the Past Weeks

 TemperatureHumidityPressure
High68 °F (Apr 24, 4:30 pm)100% (Apr 16, 7:30 am)30.51 "Hg (Apr 16, 7:30 am)
Low30 °F (Apr 21, 6:30 am)21% (Apr 21, 2:00 pm)29.62 "Hg (Apr 30, 7:00 pm)
Average47 °F69%30.11 "Hg
* Reported Apr 16 5:00 am — May 1 5:30 am, Chalon-sur-Saône, Weather by CustomWeather, © 2017

Note: Actual official high and low records may vary slightly from our data, if they occured in-between our weather recording intervals... More about our weather records

Advertising

Chalon-sur-Saône Weather History for the Previous 24 Hours

Scroll right to see more
 ConditionsComfort  
Time TempWeatherWind HumidityBarometerVisibility
5:30 am
Mon, May 1
43 °FPartly cloudy.15 mph100%29.89 "HgN/A
5:00 am43 °FLight rain. Clear.12 mph100%29.86 "HgN/A
4:30 am45 °FMostly cloudy.13 mph87%29.86 "HgN/A
4:00 am45 °FLight rain. Mostly cloudy.13 mph93%29.86 "HgN/A
3:30 am45 °FLight rain. Mostly cloudy.14 mph93%29.86 "HgN/A
3:00 am45 °FLight rain. Mostly cloudy.12 mph93%29.83 "HgN/A
2:30 am45 °FLight rain. Mostly cloudy.10 mph93%29.83 "HgN/A
2:00 am45 °FLight rain. Low clouds.8 mph93%29.83 "HgN/A
1:30 am45 °FLight rain. Overcast.8 mph93%29.83 "HgN/A
1:00 am45 °FRain. Overcast.12 mph93%29.83 "HgN/A
12:30 am46 °FLight rain. Mostly cloudy.9 mph93%29.80 "HgN/A
12:00 am48 °FLight rain. Mostly cloudy.14 mph87%29.80 "HgN/A
11:30 pm
Sun, Apr 30
48 °FLight rain. Mostly cloudy.13 mph94%29.77 "HgN/A
11:00 pm50 °FLight rain. Mostly cloudy.16 mph88%29.77 "HgN/A
10:30 pm52 °FLight rain. Partly cloudy.16 mph82%29.74 "HgN/A
10:00 pm54 °FLight rain. Overcast.14 mph72%29.71 "HgN/A
9:30 pm57 °FLight rain. Clear.15 mph59%29.68 "HgN/A
9:00 pm59 °FLight rain. Clear.12 mph55%29.68 "HgN/A
8:30 pm61 °FSunny.10 mph45%29.65 "Hg10 mi
8:00 pm61 °FSunny.10 mph45%29.65 "Hg10 mi
7:30 pm61 °FSunny.17 mph42%29.65 "Hg10 mi
7:00 pm63 °FSunny.16 mph39%29.62 "Hg10 mi
6:30 pm64 °FSunny.17 mph37%29.65 "Hg10 mi
6:00 pm66 °FSunny.17 mph37%29.65 "Hg10 mi
5:30 pm66 °FSunny.15 mph37%29.65 "Hg10 mi
5:00 pm66 °FSunny.15 mph37%29.65 "Hg10 mi
4:30 pm66 °FPassing clouds.17 mph37%29.68 "HgN/A
4:00 pm64 °FSunny.22 mph37%29.68 "Hg10 mi
3:30 pm66 °FSunny.21 mph35%29.71 "Hg10 mi
3:00 pm66 °FSunny.22 mph32%29.71 "Hg10 mi
2:30 pm66 °FSunny.21 mph35%29.71 "Hg10 mi
2:00 pm66 °FSunny.24 mph35%29.74 "Hg10 mi
1:30 pm64 °FSunny.20 mph34%29.77 "Hg10 mi
1:00 pm64 °FPassing clouds.14 mph37%29.77 "HgN/A
12:30 pm64 °FPassing clouds.15 mph40%29.77 "HgN/A
12:00 pm64 °FPassing clouds.13 mph43%29.80 "HgN/A
11:30 am63 °FSunny.12 mph45%29.80 "Hg10 mi
11:00 am61 °FPassing clouds.9 mph48%29.80 "HgN/A
10:30 am59 °FPassing clouds.6 mph51%29.83 "HgN/A
10:00 am55 °FPassing clouds.5 mph59%29.83 "HgN/A
9:30 am54 °FPassing clouds.6 mph67%29.83 "HgN/A
9:00 am50 °FSunny.6 mph76%29.86 "Hg10 mi
8:30 am46 °FPassing clouds.3 mph82%29.86 "HgN/A
8:00 am45 °FPassing clouds.3 mph87%29.86 "HgN/A
7:30 am41 °FSunny.6 mph93%29.86 "Hg10 mi
7:00 am37 °FClear.3 mph93%29.86 "Hg10 mi
6:30 am37 °FClear.7 mph93%29.86 "Hg10 mi
6:00 am36 °FClear.6 mph93%29.86 "Hg10 mi
Weather by CustomWeather, © 2017

See weather overviewHow to use our weather pages